Hourly Data Report for October 20, 2015

All times are specified in Local Standard Time (LST). Add 1 hour to adjust for Daylight Saving Time where and when it is observed.

KITCHENER/WATERLOO
ONTARIO

43°27'39.000" N
80°22'43.000" W
321.60 m
6144239
71368
YKF

Download Data

Hourly Data (October 2015)
Hourly Data Report for October 20, 2015
Temp Definition
°C
Dew Point Temp Definition
°C
Rel Hum Definition
%
Wind Dir Definition
10's deg

Wind Spd Definition
km/h
Visibility Definition
km
Stn Press Definition
kPa
Hmdx Definition


Wind Chill Definition


Weather Definition


TIME
00:00 Legend Double Dagger 13.8 1.9 44 24 26 16.1 97.86     LegendNANA
01:00 Legend Double Dagger 13.7 1.4 43 23 24 16.1 97.83     LegendNANA
02:00 Legend Double Dagger 12.7 1.9 48 24 22 16.1 97.84     LegendNANA
03:00 Legend Double Dagger 11.2 4.9 65 24 22 16.1 97.87     Rain
04:00 Legend Double Dagger 11.3 4.2 61 24 22 16.1 97.88     Rain
05:00 Legend Double Dagger 11.0 4.4 64 24 17 16.1 97.93     LegendNANA
06:00 Legend Double Dagger 9.9 6.0 76 24 21 16.1 97.98     Rain
07:00 Legend Double Dagger 10.3 4.9 69 24 17 16.1 98.00     Rain
08:00 Legend Double Dagger 11.7 4.6 62 23 11 16.1 98.02     LegendNANA
09:00 Legend Double Dagger 12.6 4.8 59 22 13 16.1 98.07     LegendNANA
10:00 Legend Double Dagger 14.0 5.6 57 24 15 16.1 98.10     LegendNANA
11:00 Legend Double Dagger 15.0 5.2 52 25 18 16.1 98.10     LegendNANA
12:00 Legend Double Dagger 16.2 6.0 51 25 24 16.1 98.10     LegendNANA
13:00 Legend Double Dagger 14.7 7.7 63 25 22 16.1 98.10     Rain
14:00 Legend Double Dagger 13.1 8.9 76 27 11 16.1 98.07     Rain
15:00 Legend Double Dagger 14.0 9.4 74 27 13 16.1 98.12     LegendNANA
16:00 Legend Double Dagger 13.2 9.9 80 29 11 16.1 98.16     LegendNANA
17:00 Legend Double Dagger 13.0 9.8 81 19 9 16.1 98.18     LegendNANA
18:00 Legend Double Dagger 12.7 9.7 82 23 9 16.1 98.26     LegendNANA
19:00 Legend Double Dagger 12.6 9.1 79 26 9 16.1 98.31     LegendNANA
20:00 Legend Double Dagger 12.2 8.7 79   0 16.1 98.31     LegendNANA
21:00 Legend Double Dagger 11.0 9.2 88   0 16.1 98.31     Rain
22:00 Legend Double Dagger 10.9 9.4 90 LegendMM 4 16.1 98.32     LegendNANA
23:00 Legend Double Dagger 10.6 9.7 94 LegendMM 4 16.1 98.37     Rain

Notes on Data Quality.

Legend

  • E = Estimated
  • M = Missing
  • NA = Not Available
  • ‡ = Partner data that is not subject to review by the National Climate Archives
Date modified: